WZ3X Weather Reports


time (UTC)temp
C
wind
direction
speed
KPH
gust
KPH
rain 1hr
cm
rain 24hr
cm
rain mn
cm
humidity
%
barometer
mb
20260506003122 22 190 8.0 16.1 0.00 0.00 0.00 88 1013.9
20260506001623 22 171 8.0 17.7 0.00 0.00 0.00 87 1013.7
20260506000120 23 221 8.0 14.5 0.00 0.00 0.00 86 1013.5
20260505234637 23 163 8.0 14.5 0.00 0.00 0.00 83 1013.9
20260505233155 23 166 9.7 16.1 0.00 0.00 0.00 79 1013.9
20260505231633 24 196 6.4 16.1 0.00 0.00 0.00 74 1013.9
20260505230128 24 155 4.8 19.3 0.00 0.00 0.00 77 1013.7
20260505224624 24 150 8.0 20.9 0.00 0.00 0.00 73 1013.9
20260505223137 24 160 9.7 17.7 0.00 0.00 0.00 78 1013.9
20260505221627 24 169 9.7 22.5 0.00 0.00 0.00 80 1013.9
20260505220124 24 221 9.7 22.5 0.00 0.00 0.00 78 1013.9
20260505214624 25 173 12.9 20.9 0.00 0.00 0.00 75 1013.8
20260505213118 25 169 11.3 20.9 0.00 0.00 0.00 73 1013.9
20260505211631 25 171 12.9 24.1 0.00 0.00 0.00 65 1014.0
20260505210129 25 184 12.9 19.3 0.00 0.00 0.00 65 1014.0
20260505204621 25 163 11.3 24.1 0.00 0.00 0.00 65 1014.0
20260505203119 25 198 11.3 25.7 0.00 0.00 0.00 62 1014.2
20260505201634 25 198 14.5 24.1 0.00 0.00 0.00 59 1014.4
20260505200126 25 155 11.3 24.1 0.00 0.00 0.00 59 1014.6
20260505194642 25 167 12.9 24.1 0.00 0.00 0.00 58 1014.8
20260505193133 26 256 9.7 20.9 0.00 0.00 0.00 58 1014.9
20260505191624 26 151 9.7 19.3 0.00 0.00 0.00 57 1014.9
20260505190123 26 142 9.7 25.7 0.00 0.00 0.00 56 1014.9
20260505184619 25 162 11.3 20.9 0.00 0.00 0.00 58 1015.2
20260505183136 25 175 11.3 20.9 0.00 0.00 0.00 60 1015.2
20260505181625 25 153 11.3 17.7 0.00 0.00 0.00 61 1015.0
20260505180120 25 136 9.7 17.7 0.00 0.00 0.00 63 1015.1
20260505174639 25 202 11.3 16.1 0.00 0.00 0.00 63 1015.4
20260505173157 25 177 11.3 19.3 0.00 0.00 0.00 62 1015.5
20260505171632 25 190 9.7 14.5 0.00 0.00 0.00 60 1015.6
20260505170122 25 141 9.7 16.1 0.00 0.00 0.00 59 1015.6
20260505164623 24 177 9.7 16.1 0.00 0.00 0.00 59 1015.7
20260505163138 24 148 12.9 19.3 0.00 0.00 0.00 60 1015.5
20260505161633 24 178 11.3 17.7 0.00 0.00 0.00 60 1015.4
20260505160124 24 146 6.4 16.1 0.00 0.00 0.00 62 1015.5
20260505153136 23 150 8.0 16.1 0.00 0.00 0.00 62 1015.5
20260505151630 23 136 9.7 17.7 0.00 0.00 0.00 64 1015.5
20260505150125 23 105 9.7 20.9 0.00 0.00 0.00 64 1015.4
20260505140123 22 140 9.7 16.1 0.00 0.00 0.00 68 1015.1
20260505130132 19 121 6.4 11.3 0.00 0.00 0.00 80 1014.9
20260505124629 18 149 6.4 11.3 0.00 0.00 0.00 82 1015.0
20260505123124 18 107 8.0 12.9 0.00 0.00 0.00 83 1015.0
20260505121637 18 113 3.2 8.0 0.00 0.00 0.00 84 1015.0
20260505120130 17 113 3.2 8.0 0.00 0.00 0.00 84 1015.0
20260505114621 17 109 6.4 12.9 0.00 0.00 0.00 85 1014.8
20260505113142 17 106 4.8 8.0 0.00 0.00 0.00 86 1014.6
20260505111633 17 133 3.2 6.4 0.00 0.00 0.00 86 1014.4
20260505110128 17 161 1.6 11.3 0.00 0.00 0.00 86 1014.0
20260505101633 16 114 11.3 16.1 0.00 0.00 0.00 87 1014.1
20260505100130 16 89 9.7 12.9 0.00 0.00 0.00 88 1014.0
20260505094630 16 107 1.6 4.8 0.00 0.00 0.00 89 1013.9
20260505091627 16 124 3.2 8.0 0.00 0.00 0.00 89 1013.4
20260505090120 16 115 4.8 11.3 0.00 0.00 0.00 90 1013.4
20260505084639 15 111 3.2 4.8 0.00 0.00 0.00 93 1013.4
20260505083154 15 106 1.6 3.2 0.00 0.00 0.00 91 1013.3
20260505081627 16 106 1.6 4.8 0.00 0.00 0.00 91 1013.1
20260505080146 16 106 3.2 6.4 0.00 0.00 0.00 93 1013.1
20260505074624 15 263 1.6 3.2 0.00 0.00 0.00 94 1013.2
20260505073122 15 262 0.0 3.2 0.00 0.00 0.00 94 1013.4
20260505071655 14 263 0.0 0.0 0.00 0.00 0.00 93 1013.4
20260505070132 14 263 0.0 0.0 0.00 0.00 0.00 93 1013.5
20260505064627 14 263 0.0 0.0 0.00 0.00 0.00 91 1013.7
20260505063120 14 263 0.0 0.0 0.00 0.00 0.00 91 1013.9
20260505061614 14 263 0.0 1.6 0.00 0.00 0.00 90 1014.1
20260505060130 14 263 1.6 3.2 0.00 0.00 0.00 90 1014.0
20260505054627 14 263 0.0 1.6 0.00 0.00 0.00 88 1014.0
20260505053126 15 263 0.0 0.0 0.00 0.00 0.00 90 1014.2
20260505051618 15 263 0.0 0.0 0.00 0.00 0.00 90 1014.2
20260505050120 15 263 0.0 0.0 0.00 0.00 0.00 89 1014.0
20260505041619 16 263 0.0 3.2 0.00 0.00 0.00 87 1014.4
20260505040134 16 262 0.0 0.0 0.00 0.00 0.00 85 1014.6
20260505034626 16 263 0.0 0.0 0.00 0.00 0.00 83 1014.7
20260505033118 16 263 0.0 0.0 0.00 0.00 0.00 81 1014.7
20260505031638 16 263 0.0 0.0 0.00 0.00 0.00 80 1014.9
20260505030127 17 263 0.0 1.6 0.00 0.00 0.00 78 1015.0
20260505024647 17 263 0.0 0.0 0.00 0.00 0.00 77 1015.0
20260505023118 18 263 0.0 0.0 0.00 0.00 0.00 75 1015.0
20260505021612 19 263 1.6 3.2 0.00 0.00 0.00 74 1015.0
20260505020113 20 253 0.0 9.7 0.00 0.00 0.00 71 1015.2
20260505014633 20 228 1.6 6.4 0.00 0.00 0.00 70 1015.2
20260505013147 20 232 1.6 8.0 0.00 0.00 0.00 69 1015.0
20260505011620 20 241 3.2 6.4 0.00 0.00 0.00 68 1015.1
20260505010135 21 231 1.6 6.4 0.00 0.00 0.00 66 1015.0
20260505004632 21 233 4.8 9.7 0.00 0.00 0.00 63 1015.0